Hereford, TX

12:41 PM CDT on June 26, 2017 (GMT -0500)
Hereford Municipal

Weather History for KHRX - January, 2014

Change the Weather History Date:

Thursday, January 16, 2014

  Actual Average (KCVN) Record (KCVN)
Temperature  
Mean Temperature 38 °F -  
Max Temperature 52 °F 54 °F 75 °F (1914)
Min Temperature 24 °F 24 °F -5 °F (1930)
Degree Days  
Heating Degree Days 27    
Moisture  
Dew Point 15 °F    
Average Humidity 43    
Maximum Humidity 66    
Minimum Humidity 24    
Precipitation  
Precipitation 0.00 in - - ()
Sea Level Pressure  
Sea Level Pressure 30.18 in    
Wind  
Wind Speed 6 mph (NNE)    
Max Wind Speed 25 mph    
Max Gust Speed 32 mph    
Visibility 10 miles    
Events      
Averages and records for this station are not official NWS values.
T = Trace of Precipitation, MM = Missing Value Source: NWS Daily Summary

Daily Weather History Graph

Daily Weather History Graph

Search for Another Location

Airport or City:

Trip Planner

Search our weather history database for the weather conditions in past years. The results will help you decide how hot, cold, wet, or windy it might be!

Date:

Astronomy

Jan. 16, 2014 Rise Set
Actual Time 7:56 AM CST 6:02 PM CST
Civil Twilight 7:28 AM CST 6:29 PM CST
Nautical Twilight 6:57 AM CST 7:00 PM CST
Astronomical Twilight 6:27 AM CST 7:31 PM CST
Moon 6:51 PM CST (1/16) 7:54 AM CST (1/16)
Length of Visible Light 11h 00m
Length of Day
10h 06m
Full, 100% of the Moon is Illuminated
Jan 16
Full
Jan 23
Last Quarter
Jan 30
New
Feb 6
First Quarter
Feb 14
Full

Hourly Weather History & Observations

Time (CST) Temp. Windchill Dew Point Humidity Pressure Visibility Wind Dir Wind Speed Gust Speed Precip Events Conditions
12:15 AM 29.3 °F - 14.0 °F 53% 30.02 in 10.0 mi Calm Calm - N/A   Clear
12:35 AM 27.5 °F - 13.3 °F 55% 30.02 in 10.0 mi Calm Calm - N/A   Clear
12:55 AM 24.1 °F 19.7 °F 10.6 °F 56% 30.03 in 10.0 mi West 3.5 mph - N/A   Clear
1:15 AM 25.2 °F 19.5 °F 13.1 °F 60% 30.04 in 10.0 mi West 4.6 mph - N/A   Clear
1:35 AM 27.7 °F 21.3 °F 14.0 °F 57% 30.03 in 10.0 mi NNW 5.8 mph - N/A   Clear
1:55 AM 30.0 °F 22.4 °F 14.4 °F 52% 30.04 in 10.0 mi NW 8.1 mph - N/A   Clear
2:15 AM 28.8 °F 25.0 °F 15.1 °F 57% 30.04 in 10.0 mi West 3.5 mph - N/A   Clear
2:35 AM 28.9 °F 23.9 °F 16.3 °F 59% 30.04 in 10.0 mi NNW 4.6 mph - N/A   Clear
2:55 AM 29.1 °F 25.4 °F 15.8 °F 58% 30.05 in 10.0 mi NNW 3.5 mph - N/A   Clear
3:15 AM 28.9 °F 22.8 °F 15.4 °F 57% 30.05 in 10.0 mi North 5.8 mph - N/A   Clear
3:35 AM 28.6 °F - 16.2 °F 60% 30.06 in 10.0 mi Calm Calm - N/A   Clear
3:55 AM 33.4 °F 25.9 °F 17.6 °F 52% 30.07 in 10.0 mi North 9.2 mph - N/A   Clear
4:15 AM 34.7 °F 27.5 °F 17.4 °F 49% 30.07 in 10.0 mi North 9.2 mph - N/A   Clear
4:35 AM 39.6 °F 32.1 °F 17.1 °F 40% 30.07 in 10.0 mi North 12.7 mph - N/A   Clear
4:55 AM 33.4 °F 25.4 °F 16.7 °F 50% 30.07 in 10.0 mi NNW 10.4 mph - N/A   Clear
5:15 AM 32.2 °F 23.8 °F 16.5 °F 53% 30.07 in 10.0 mi North 10.4 mph - N/A   Clear
5:35 AM 31.1 °F 23.7 °F 16.3 °F 54% 30.09 in 10.0 mi North 8.1 mph - N/A   Clear
5:55 AM 30.9 °F - 15.8 °F 54% 30.09 in 10.0 mi Calm Calm - N/A   Clear
6:15 AM 31.1 °F 27.7 °F 16.3 °F 54% 30.10 in 10.0 mi NNW 3.5 mph - N/A   Clear
6:35 AM 29.1 °F - 17.1 °F 61% 30.11 in 10.0 mi Calm Calm - N/A   Clear
6:55 AM 28.8 °F 23.7 °F 16.5 °F 60% 30.12 in 10.0 mi NNW 4.6 mph - N/A   Clear
7:15 AM 25.0 °F - 14.9 °F 66% 30.13 in 10.0 mi Calm Calm - N/A   Clear
7:35 AM 28.9 °F 21.9 °F 16.0 °F 58% 30.14 in 10.0 mi North 6.9 mph - N/A   Clear
7:55 AM 26.4 °F 20.9 °F 14.7 °F 61% 30.15 in 10.0 mi North 4.6 mph - N/A   Clear
8:15 AM 25.9 °F 19.2 °F 14.9 °F 63% 30.17 in 10.0 mi North 5.8 mph - N/A   Clear
8:35 AM 27.5 °F 21.1 °F 16.5 °F 63% 30.18 in 10.0 mi North 5.8 mph - N/A   Clear
8:55 AM 31.1 °F 26.4 °F 17.4 °F 57% 30.19 in 10.0 mi North 4.6 mph - N/A   Clear
9:15 AM 34.5 °F - 18.5 °F 52% 30.21 in 10.0 mi North - - N/A   Clear
9:35 AM 37.8 °F - 19.4 °F 48% 30.22 in 10.0 mi Calm Calm - N/A   Clear
9:55 AM 42.4 °F 40.7 °F 19.8 °F 40% 30.22 in 10.0 mi North 3.5 mph - N/A   Clear
10:15 AM 47.3 °F - 19.6 °F 33% 30.24 in 10.0 mi NNE 10.4 mph - N/A   Clear
10:35 AM 49.3 °F - 18.1 °F 29% 30.24 in 10.0 mi NE 17.3 mph - N/A   Clear
10:55 AM 50.2 °F - 17.4 °F 27% 30.26 in 7.0 mi NE 25.3 mph 32.2 mph N/A   Clear
11:15 AM 49.1 °F - 17.2 °F 28% 30.26 in 10.0 mi NNE 23.0 mph 29.9 mph N/A   Clear
11:35 AM 49.6 °F - 17.8 °F 28% 30.26 in 10.0 mi NNE 21.9 mph 31.1 mph N/A   Clear
11:55 AM 49.5 °F - 18.3 °F 29% 30.26 in 10.0 mi NE 21.9 mph 31.1 mph N/A   Clear
12:15 PM 50.0 °F - 18.7 °F 29% 30.25 in 10.0 mi NE 24.2 mph 28.8 mph N/A   Clear
12:35 PM 50.5 °F - 19.4 °F 29% 30.24 in 10.0 mi NNE 17.3 mph 25.3 mph N/A   Clear
12:55 PM 50.5 °F - 19.8 °F 30% 30.23 in 10.0 mi NE 19.6 mph 28.8 mph N/A   Clear
1:15 PM 50.9 °F - 19.4 °F 29% 30.22 in 10.0 mi NE 18.4 mph 24.2 mph N/A   Clear
1:35 PM 50.9 °F - 18.3 °F 28% 30.22 in 10.0 mi NE 15.0 mph 23.0 mph N/A   Clear
1:55 PM 51.3 °F - 17.6 °F 26% 30.21 in 10.0 mi ENE 10.4 mph 17.3 mph N/A   Clear
2:35 PM 52.2 °F - 16.7 °F 25% 30.19 in 10.0 mi NNE 15.0 mph 18.4 mph N/A   Clear
2:55 PM 51.8 °F - 16.7 °F 25% 30.19 in 10.0 mi NNE 9.2 mph 18.4 mph N/A   Clear
3:15 PM 52.2 °F - 16.5 °F 24% 30.19 in 10.0 mi NE 13.8 mph 18.4 mph N/A   Clear
3:35 PM 51.8 °F - 15.6 °F 24% 30.19 in 10.0 mi NNE 12.7 mph 18.4 mph N/A   Clear
3:55 PM 51.8 °F - 15.6 °F 24% 30.19 in 10.0 mi NE 11.5 mph 18.4 mph N/A   Clear
4:15 PM 51.4 °F - 15.3 °F 24% 30.19 in 10.0 mi ENE 9.2 mph - N/A   Clear
4:35 PM 51.1 °F - 14.9 °F 24% 30.19 in 10.0 mi ENE 8.1 mph - N/A   Clear
4:55 PM 50.5 °F - 14.9 °F 24% 30.20 in 10.0 mi ENE 8.1 mph - N/A   Clear
5:15 PM 49.6 °F - 14.7 °F 25% 30.20 in 10.0 mi NE 6.9 mph - N/A   Clear
5:35 PM 47.1 °F - 14.4 °F 27% 30.21 in 10.0 mi NE 3.5 mph - N/A   Clear
5:55 PM 44.2 °F - 14.2 °F 30% 30.22 in 10.0 mi North - - N/A   Clear
6:15 PM 43.0 °F - 14.4 °F 31% 30.22 in 10.0 mi North - - N/A   Clear
6:35 PM 41.0 °F - 14.0 °F 33% 30.24 in 10.0 mi North - - N/A   Clear
6:55 PM 39.2 °F - 13.6 °F 35% 30.24 in 10.0 mi North - - N/A   Clear
7:15 PM 36.0 °F - 12.9 °F 39% 30.24 in 10.0 mi North - - N/A   Clear
7:35 PM 37.4 °F 33.8 °F 13.6 °F 38% 30.24 in 10.0 mi NE 4.6 mph - N/A   Clear
7:55 PM 36.3 °F 32.5 °F 13.5 °F 39% 30.24 in 10.0 mi NE 4.6 mph - N/A   Clear
8:15 PM 32.5 °F 28.1 °F 12.0 °F 43% 30.25 in 10.0 mi ENE 4.6 mph - N/A   Clear
8:35 PM 32.0 °F 27.5 °F 11.5 °F 43% 30.25 in 10.0 mi East 4.6 mph - N/A   Clear
8:55 PM 31.6 °F - 11.7 °F 44% 30.26 in 10.0 mi Calm Calm - N/A   Clear
9:15 PM 30.6 °F - 11.3 °F 45% 30.27 in 10.0 mi North - - N/A   Clear
9:35 PM 29.5 °F - 8.8 °F 42% 30.28 in 10.0 mi Calm Calm - N/A   Clear
9:55 PM 28.4 °F - 8.2 °F 43% 30.29 in 10.0 mi Calm Calm - N/A   Clear
10:15 PM 29.3 °F 25.6 °F 9.7 °F 44% 30.29 in 10.0 mi NNW 3.5 mph - N/A   Clear
10:35 PM 25.9 °F 19.2 °F 6.6 °F 44% 30.30 in 10.0 mi NNW 5.8 mph - N/A   Clear
10:55 PM 25.5 °F 21.3 °F 8.6 °F 49% 30.31 in 10.0 mi NW 3.5 mph - N/A   Clear
11:15 PM 25.7 °F 20.1 °F 8.8 °F 49% 30.32 in 10.0 mi North 4.6 mph - N/A   Clear
11:35 PM 25.5 °F 19.9 °F 9.1 °F 50% 30.31 in 10.0 mi North 4.6 mph - N/A   Clear
11:55 PM 25.2 °F - 9.1 °F 51% 30.31 in 10.0 mi Calm Calm - N/A   Clear